Weather History for Lander, WY

Change the Weather History Date:

Monday, May 19, 2014

  Actual Average Record
Temperature  
Mean Temperature 56 °F 54 °F  
Max Temperature 68 °F 68 °F 88 °F (1954)
Min Temperature 44 °F 41 °F 24 °F (1950)
Degree Days  
Heating Degree Days 9 11  
Month to date heating degree days 293 259  
Since 1 July heating degree days 7545 7513  
Cooling Degree Days 0 0  
Month to date cooling degree days 2 0  
Year to date cooling degree days 2 0  
Growing Degree Days 6 (Base 50)    
Moisture  
Dew Point 29 °F    
Average Humidity 38    
Maximum Humidity 56    
Minimum Humidity 19    
Precipitation  
Precipitation 0.00 in 0.07 in 2.52 in (2011)
Month to date precipitation 1.47 1.37  
Year to date precipitation 4.15 5.39  
Snow  
Snow 0.00 in 0.10 in - ()
Month to date snowfall 2.2 4.2  
Since 1 July snowfall 75.7 90.7  
Snow Depth 0.00 in    
Sea Level Pressure  
Sea Level Pressure 29.72 in    
Wind  
Wind Speed 10 mph (West)    
Max Wind Speed 32 mph    
Max Gust Speed 40 mph    
Visibility 10 miles    
Events      
T = Trace of Precipitation, MM = Missing Value Source: NWS Daily Summary

Daily Weather History Graph

Daily Weather History Graph

Search for Another Location

Airport:

Trip Planner

Search our weather history database for the weather conditions in past years. The results will help you decide how hot, cold, wet, or windy it might be!

Date:

Astronomy

May. 19, 2014 Rise Set
Actual Time 5:48 AM MDT 8:35 PM MDT
Civil Twilight 5:15 AM MDT 9:08 PM MDT
Nautical Twilight 4:33 AM MDT 9:49 PM MDT
Astronomical Twilight 3:45 AM MDT 10:38 PM MDT
Moon 12:23 AM MDT (5/19) 10:51 AM MDT (5/19)
Length of Visible Light 15h 52m
Length of Day
14h 46m
Waning Gibbous, 70% of the Moon is Illuminated
May 19
Waning Gibbous
May 21
Last Quarter
May 28
New
Jun 5
First Quarter
Jun 12
Full

Hourly Weather History & Observations

Time (MDT) Temp. Dew Point Humidity Pressure Visibility Wind Dir Wind Speed Gust Speed Precip Events Conditions
12:53 AM 55.0 °F 24.1 °F 30% 29.57 in 10.0 mi ENE 10.4 mph - N/A   Clear
1:53 AM 50.0 °F 30.9 °F 48% 29.58 in 10.0 mi SE 6.9 mph - N/A   Clear
2:53 AM 50.0 °F 33.1 °F 52% 29.61 in 10.0 mi Calm Calm - N/A   Clear
3:53 AM 48.0 °F 32.0 °F 54% 29.61 in 10.0 mi WSW 10.4 mph - N/A   Clear
4:53 AM 46.9 °F 30.9 °F 54% 29.62 in 10.0 mi Calm Calm - N/A   Clear
5:53 AM 46.9 °F 30.9 °F 54% 29.65 in 10.0 mi West 5.8 mph - N/A   Clear
8:53 AM 53.1 °F 27.0 °F 37% 29.70 in 10.0 mi West 19.6 mph - N/A   Mostly Cloudy
9:53 AM 54.0 °F 26.1 °F 34% 29.71 in 10.0 mi West 9.2 mph 20.7 mph N/A   Overcast
10:53 AM 54.0 °F 30.0 °F 40% 29.73 in 10.0 mi West 27.6 mph 40.3 mph N/A   Overcast
11:06 AM 53.1 °F 34.0 °F 48% 29.82 in 10.0 mi SSW 27.6 mph 35.7 mph N/A   Overcast
11:53 AM 53.6 °F 30.2 °F 41% 29.84 in 10.0 mi SW 18.4 mph 24.2 mph N/A   Overcast
12:53 PM 57.9 °F 30.0 °F 35% 29.70 in 10.0 mi North 5.8 mph - N/A   Scattered Clouds
1:53 PM 63.0 °F 28.9 °F 28% 29.70 in 10.0 mi North - - N/A   Clear
2:53 PM 64.9 °F 24.1 °F 21% 29.70 in 10.0 mi North - - N/A   Partly Cloudy
3:53 PM 66.9 °F 23.0 °F 19% 29.70 in 10.0 mi West 15.0 mph 21.9 mph N/A   Partly Cloudy
4:53 PM 64.0 °F 30.0 °F 28% 29.72 in 10.0 mi WNW 15.0 mph - N/A   Clear
5:53 PM 62.1 °F 30.9 °F 31% 29.74 in 10.0 mi West 12.7 mph 20.7 mph N/A   Clear
6:53 PM 61.0 °F 28.9 °F 30% 29.76 in 10.0 mi NW 9.2 mph 19.6 mph N/A   Clear
7:53 PM 59.0 °F 26.1 °F 28% 29.75 in 10.0 mi North 11.5 mph 21.9 mph N/A   Clear
8:53 PM 55.9 °F 26.1 °F 32% 29.78 in 10.0 mi NW 8.1 mph - N/A   Clear
9:53 PM 51.1 °F 28.9 °F 43% 29.82 in 10.0 mi West 6.9 mph - N/A   Clear
10:53 PM 48.9 °F 30.9 °F 50% 29.86 in 10.0 mi SSE 4.6 mph - N/A   Clear
11:53 PM 48.9 °F 28.0 °F 44% 29.87 in 10.0 mi WSW 12.7 mph - N/A   Partly Cloudy